Location: LDNL
(36.4545°S, 141.6685°E)
Time: 18:35:58
(UTC+10:00)

Tiros 1 despin weight - Pass Details

Date: 31 January 2022
Orbit: 592 x 639 km, 48.2° (Epoch: 28 May)

Event Time Altitude Azimuth Distance (km) Brightness Sun altitude
Exits shadow 05:32:07 11° 257° (WSW) 1,914 ? -14.2°
Maximum altitude 05:35:49 28° 200° (SSW) 1,184 ? -13.6°
Drops below altitude 10° 05:39:46 10° 140° (SE) 1,988 ? -13.0°
Sets 05:42:20 0° 128° (SE) 2,886 ? -12.5°
